When you browse on this site, cookies collect data to enhance your experience and personalize the content and advertising you see.
Visit our Privacy Policy to learn more. By continuing to use the site, you agree to this use of cookies and data.
EN

Hourly Weather Novye Omelniki

Today, 18 September, Friday

Time Temperature Precipitation Wind Pressure Humidity
00:00 +6°C° 0 mm 1 mps 736 mmHg 85%
01:00 +5°C° 0 mm 1 mps 736 mmHg 86%
02:00 +5°C° 0 mm 1 mps 736 mmHg 88%
03:00 +4°C° 0 mm 2 mps 736 mmHg 89%
04:00 +4°C° 0 mm 2 mps 736 mmHg 91%
05:00 +3°C° 0 mm 3 mps 736 mmHg 91%
06:00 +3°C° 0 mm 3 mps 736 mmHg 91%
07:00 +4°C° 0 mm 3 mps 736 mmHg 91%
08:00 +6°C° 0 mm 4 mps 736 mmHg 83%
09:00 +8°C° 0 mm 5 mps 736 mmHg 76%
10:00 +10°C° 0 mm 5 mps 736 mmHg 68%
11:00 +11°C° 0 mm 6 mps 736 mmHg 63%
12:00 +14°C° 0 mm 6 mps 736 mmHg 58%
13:00 +15°C° 0 mm 6 mps 736 mmHg 52%
14:00 +15°C° 0 mm 6 mps 735 mmHg 52%
15:00 +15°C° 0 mm 6 mps 735 mmHg 52%
16:00 +15°C° 0 mm 6 mps 735 mmHg 52%
17:00 +14°C° 0 mm 5 mps 734 mmHg 55%
18:00 +13°C° 0 mm 5 mps 734 mmHg 57%
19:00 +12°C° 0 mm 4 mps 734 mmHg 59%
20:00 +11°C° 0 mm 4 mps 734 mmHg 59%
21:00 +11°C° 0 mm 4 mps 733 mmHg 58%
22:00 +10°C° 0 mm 4 mps 733 mmHg 58%
23:00 +10°C° 0 mm 4 mps 733 mmHg 57%

Tomorrow, 19 September, Saturday

Time Temperature Precipitation Wind Pressure Humidity
00:00 +10°C° 0 mm 4 mps 733 mmHg 57%
01:00 +9°C° 0 mm 5 mps 732 mmHg 57%
02:00 +8°C° 0 mm 5 mps 732 mmHg 56%
03:00 +8°C° 0 mm 5 mps 732 mmHg 55%
04:00 +8°C° 0 mm 5 mps 731 mmHg 54%
05:00 +8°C° 0 mm 6 mps 730 mmHg 54%
06:00 +8°C° 0 mm 6 mps 730 mmHg 54%
07:00 +8°C° 0 mm 6 mps 729 mmHg 54%
08:00 +9°C° 0 mm 6 mps 728 mmHg 52%
09:00 +10°C° 0 mm 6 mps 728 mmHg 49%
10:00 +11°C° 0 mm 7 mps 728 mmHg 47%
11:00 +11°C° 0.1 mm 7 mps 727 mmHg 50%
12:00 +11°C° 0.1 mm 7 mps 727 mmHg 53%
13:00 +10°C° 0.1 mm 8 mps 726 mmHg 56%
14:00 +10°C° 0.4 mm 7 mps 726 mmHg 65%
15:00 +9°C° 0.4 mm 7 mps 725 mmHg 74%
16:00 +8°C° 0.4 mm 7 mps 725 mmHg 84%
17:00 +8°C° 0.7 mm 7 mps 724 mmHg 86%
18:00 +7°C° 0.7 mm 8 mps 723 mmHg 88%
19:00 +7°C° 0.7 mm 8 mps 723 mmHg 91%
20:00 +7°C° 1.7 mm 8 mps 722 mmHg 90%
21:00 +7°C° 1.7 mm 9 mps 721 mmHg 90%
22:00 +7°C° 1.7 mm 9 mps 721 mmHg 89%
23:00 +8°C° 1.5 mm 7 mps 720 mmHg 90%

Day after tomorrow, 20 September, Sunday

Time Temperature Precipitation Wind Pressure Humidity
00:00 +7°C° 1.5 mm 5 mps 719 mmHg 92%
01:00 +8°C° 1.5 mm 3 mps 718 mmHg 93%
02:00 +8°C° 1.9 mm 3 mps 718 mmHg 94%
03:00 +8°C° 1.9 mm 2 mps 717 mmHg 96%
04:00 +8°C° 1.9 mm 2 mps 717 mmHg 97%
05:00 +7°C° 1.7 mm 4 mps 717 mmHg 95%
06:00 +5°C° 1.7 mm 7 mps 717 mmHg 93%
07:00 +5°C° 1.7 mm 9 mps 717 mmHg 90%
08:00 +5°C° 0.5 mm 9 mps 718 mmHg 87%
09:00 +5°C° 0.5 mm 9 mps 719 mmHg 84%
10:00 +3°C° 0.5 mm 9 mps 720 mmHg 82%
11:00 +5°C° 0.1 mm 8 mps 721 mmHg 78%
12:00 +5°C° 0.1 mm 8 mps 721 mmHg 75%
13:00 +5°C° 0.1 mm 8 mps 722 mmHg 72%
14:00 +5°C° 0.1 mm 8 mps 723 mmHg 71%
15:00 +6°C° 0.1 mm 7 mps 723 mmHg 70%
16:00 +6°C° 0.1 mm 7 mps 724 mmHg 69%
17:00 +6°C° 0.1 mm 5 mps 724 mmHg 74%
18:00 +5°C° 0.1 mm 4 mps 725 mmHg 78%
19:00 +5°C° 0.1 mm 2 mps 725 mmHg 83%
20:00 +4°C° 0.1 mm 3 mps 725 mmHg 85%
21:00 +4°C° 0.1 mm 3 mps 725 mmHg 87%
22:00 +4°C° 0.1 mm 3 mps 726 mmHg 89%
23:00 +3°C° 0 mm 3 mps 726 mmHg 91%

21 September, Monday

Time Temperature Precipitation Wind Pressure Humidity
00:00 +3°C° 0 mm 4 mps 726 mmHg 92%
01:00 +1°C° 0 mm 4 mps 727 mmHg 93%
02:00 +1°C° 0 mm 4 mps 727 mmHg 91%
03:00 +1°C° 0 mm 4 mps 727 mmHg 90%
04:00 +1°C° 0 mm 5 mps 728 mmHg 88%
05:00 +1°C° 0.1 mm 5 mps 728 mmHg 88%
06:00 +2°C° 0.1 mm 5 mps 729 mmHg 89%
07:00 +2°C° 0.1 mm 5 mps 729 mmHg 89%
08:00 +3°C° 0.2 mm 6 mps 729 mmHg 85%
09:00 +3°C° 0.2 mm 7 mps 730 mmHg 81%
10:00 +4°C° 0.2 mm 7 mps 730 mmHg 77%
11:00 +4°C° 0.1 mm 7 mps 730 mmHg 75%
12:00 +5°C° 0.1 mm 7 mps 730 mmHg 73%
13:00 +5°C° 0.1 mm 7 mps 731 mmHg 71%
14:00 +5°C° 0.1 mm 7 mps 731 mmHg 71%
15:00 +5°C° 0.1 mm 7 mps 731 mmHg 71%
16:00 +5°C° 0.1 mm 7 mps 731 mmHg 71%
17:00 +5°C° 0 mm 7 mps 730 mmHg 73%
18:00 +4°C° 0 mm 6 mps 730 mmHg 76%
19:00 +5°C° 0 mm 5 mps 730 mmHg 78%
20:00 +4°C° 0 mm 6 mps 730 mmHg 77%
21:00 +4°C° 0 mm 6 mps 729 mmHg 76%
22:00 +5°C° 0 mm 7 mps 729 mmHg 75%
23:00 +5°C° 0.5 mm 8 mps 728 mmHg 80%

22 September, Tuesday

Time Temperature Precipitation Wind Pressure Humidity
00:00 +5°C° 0.5 mm 8 mps 728 mmHg 85%
01:00 +5°C° 0.5 mm 9 mps 727 mmHg 90%
02:00 +5°C° 0.7 mm 9 mps 727 mmHg 89%
03:00 +5°C° 0.7 mm 8 mps 727 mmHg 88%
04:00 +5°C° 0.7 mm 8 mps 727 mmHg 86%
05:00 +4°C° 0 mm 7 mps 727 mmHg 86%
06:00 +4°C° 0 mm 7 mps 728 mmHg 87%
07:00 +3°C° 0 mm 7 mps 729 mmHg 87%
08:00 +3°C° 0 mm 7 mps 730 mmHg 83%
09:00 +4°C° 0 mm 7 mps 730 mmHg 79%
10:00 +4°C° 0 mm 7 mps 731 mmHg 75%
11:00 +4°C° 0 mm 7 mps 732 mmHg 75%
12:00 +4°C° 0 mm 6 mps 733 mmHg 74%
13:00 +4°C° 0 mm 6 mps 733 mmHg 74%
14:00 +4°C° 0 mm 6 mps 734 mmHg 72%
15:00 +5°C° 0 mm 6 mps 735 mmHg 70%
16:00 +6°C° 0 mm 5 mps 735 mmHg 69%
17:00 +5°C° 0 mm 4 mps 736 mmHg 73%
18:00 +5°C° 0 mm 4 mps 736 mmHg 77%
19:00 +4°C° 0 mm 3 mps 737 mmHg 82%
20:00 +3°C° 0 mm 3 mps 737 mmHg 85%
21:00 +4°C° 0 mm 2 mps 737 mmHg 88%
22:00 +3°C° 0 mm 2 mps 738 mmHg 92%
23:00 +3°C° 0 mm 2 mps 738 mmHg 92%

23 September, Wednesday

Time Temperature Precipitation Wind Pressure Humidity
00:00 +3°C° 0 mm 2 mps 738 mmHg 92%
01:00 +3°C° 0 mm 1 mps 739 mmHg 92%
02:00 +2°C° 0 mm 2 mps 739 mmHg 92%
03:00 +2°C° 0 mm 2 mps 739 mmHg 92%
04:00 +2°C° 0 mm 2 mps 740 mmHg 92%
05:00 +2°C° 0 mm 2 mps 740 mmHg 91%
06:00 +2°C° 0 mm 2 mps 740 mmHg 90%
07:00 +3°C° 0 mm 2 mps 740 mmHg 89%
08:00 +4°C° 0 mm 3 mps 741 mmHg 83%
09:00 +5°C° 0 mm 4 mps 741 mmHg 77%
10:00 +7°C° 0 mm 4 mps 741 mmHg 70%
11:00 +9°C° 0 mm 5 mps 741 mmHg 66%
12:00 +10°C° 0 mm 5 mps 741 mmHg 62%
13:00 +11°C° 0 mm 6 mps 740 mmHg 58%
14:00 +13°C° 0 mm 6 mps 740 mmHg 60%
15:00 +13°C° 0 mm 6 mps 740 mmHg 61%
16:00 +14°C° 0 mm 6 mps 740 mmHg 63%
17:00 +12°C° 0 mm 5 mps 740 mmHg 69%
18:00 +11°C° 0 mm 4 mps 740 mmHg 75%
19:00 +10°C° 0 mm 3 mps 740 mmHg 82%
20:00 +9°C° 0 mm 3 mps 740 mmHg 84%
21:00 +9°C° 0 mm 3 mps 740 mmHg 85%
22:00 +9°C° 0 mm 3 mps 741 mmHg 87%
23:00 +8°C° 0 mm 3 mps 741 mmHg 88%
Show more